1499490000.21,16533,16.88,74032.5,6.59,6.35,6.39,0,*79
1499490001.45,16534,16.94,74050.8,6.57,6.35,6.33,0,*7A
1499490002.67,16535,16.94,74050.3,6.57,6.25,6.33,0,*7A
1499490003.93,16536,16.88,74040.3,6.57,6.47,6.47,0,*7E
1499490005.18,16537,16.88,74042.0,6.57,6.53,6.53,0,*7F
1499490006.44,16538,16.88,74040.5,6.57,6.43,6.47,0,*74
1499490007.67,16539,16.94,74048.8,6.59,6.65,6.61,0,*7B
1499490008.87,16540,16.88,74050.5,6.59,6.75,6.73,0,*77
1499490010.1,16541,16.94,74056.3,6.59,6.13,6.13,0,*70
1499490011.31,16542,16.88,74052.5,6.59,6.07,6.13,0,*76
1499490012.49,16543,16.88,74052.3,6.59,5.95,5.95,0,*72
1499490013.72,16544,16.88,74056.5,6.61,5.95,5.93,0,*78
1499490014.93,16545,16.88,74056.5,6.59,6.13,6.07,0,*71
1499490016.14,16546,16.88,74056.8,6.53,6.21,6.21,0,*7D
1499490017.35,16547,16.88,74058.5,6.57,6.21,6.21,0,*78
1499490018.61,16548,16.88,74058.5,6.57,5.93,5.89,0,*7C
1499490019.87,16549,16.88,74060.3,6.57,5.89,5.89,0,*76
1499490021.08,16550,16.88,74058.0,6.57,6.11,6.03,0,*7D
1499490022.29,16551,16.88,74058.0,6.57,6.21,6.11,0,*7C
1499490023.5,16552,16.88,74060.5,6.57,6.21,6.25,0,*78
1499490024.72,16553,16.88,74058.5,6.57,6.25,6.33,0,*7A
1499490025.95,16554,16.88,74060.0,6.57,6.13,6.21,0,*7B
1499490027.21,16555,16.88,74060.0,6.57,6.13,6.13,0,*7B
1499490028.42,16556,16.88,74062.0,6.57,6.25,6.25,0,*78
1499490029.64,16557,16.94,74064.3,6.57,6.33,6.33,0,*79
1499490030.85,16558,16.88,74060.5,6.57,6.25,6.25,0,*76
1499490032.08,16559,16.94,74060.8,6.57,5.73,5.71,0,*75
1499490033.28,16560,16.88,74056.0,6.57,5.29,5.33,0,*76
1499490034.48,16561,16.88,74056.8,6.53,5.29,5.29,0,*78
1499490035.74,16562,16.88,74056.8,6.57,5.93,5.93,0,*7F
1499490036.96,16563,16.88,74058.5,6.53,5.95,5.89,0,*77
1499490038.17,16564,16.88,74052.3,6.53,5.63,5.59,0,*74
1499490039.37,16565,16.88,74054.8,6.53,5.41,5.49,0,*74
1499490040.57,16566,16.88,74052.8,6.53,5.49,5.49,0,*7F
1499490041.79,16567,16.94,74054.0,6.51,5.51,5.49,0,*75
1499490043.04,16568,16.88,74048.8,6.51,5.27,5.27,0,*73
1499490044.25,16569,16.88,74052.8,6.51,5.15,5.15,0,*72
1499490045.47,16570,16.88,74050.3,6.49,5.27,5.27,0,*73
1499490046.64,16571,16.88,74054.5,6.49,5.37,5.33,0,*76
1499490047.85,16572,16.94,74058.5,6.47,5.29,5.23,0,*75
1499490049.05,16573,16.88,74052.8,6.47,5.23,5.29,0,*74
1499490050.23,16574,16.88,74054.0,6.45,5.11,5.19,0,*73
1499490051.46,16575,16.88,74056.8,6.47,4.97,4.85,0,*7B
1499490052.64,16576,16.94,74060.0,6.45,5.11,5.19,0,*71
1499490053.84,16577,16.88,74054.3,6.47,5.41,5.41,0,*7A
1499490055.02,16578,16.88,74058.5,6.45,5.29,5.23,0,*7D
1499490056.18,16579,16.94,74058.0,6.45,5.29,5.29,0,*76
1499490057.38,16580,16.88,74056.0,6.43,5.37,5.29,0,*79
1499490058.56,16581,16.94,74062.8,6.41,5.49,5.41,0,*7D
1499490059.78,16582,16.88,74060.0,6.43,5.29,5.27,0,*7A
1499490061.02,16583,16.88,74058.8,6.43,5.27,5.27,0,*75
1499490062.24,16584,16.94,74058.8,6.43,5.29,5.27,0,*7C
1499490063.46,16585,16.94,74058.8,6.43,5.19,5.19,0,*73
1499490064.63,16586,16.88,74058.5,6.41,5.37,5.37,0,*72
1499490065.83,16587,16.88,74058.3,6.41,4.97,4.81,0,*74
1499490067.09,16588,16.88,74052.5,6.43,4.67,4.71,0,*79
1499490068.28,16589,16.94,74048.5,6.41,5.07,5.07,0,*7D
1499490069.48,16590,16.94,74050.3,6.41,4.67,4.57,0,*76
1499490070.66,16591,16.94,74050.5,6.37,4.49,4.53,0,*7E
1499490071.83,16592,16.88,74044.0,6.37,4.89,4.89,0,*76
1499490073.01,16593,16.88,74040.3,6.37,5.33,5.33,0,*77
1499490074.18,16594,16.94,74044.8,6.37,5.33,5.41,0,*75
1499490075.36,16595,16.88,74044.0,6.37,5.63,5.67,0,*75
1499490076.59,16596,16.88,74044.0,6.37,5.81,5.93,0,*71
1499490077.84,16597,16.88,74046.3,6.39,5.85,5.85,0,*7D
1499490079.02,16598,16.94,74054.3,6.37,5.63,5.63,0,*7C
1499490080.22,16599,16.88,74054.8,6.37,5.63,5.51,0,*7C
1499490081.4,16600,16.94,74042.8,6.37,5.63,5.63,0,*7E
1499490082.59,16601,16.94,74042.8,6.37,5.77,5.71,0,*79
1499490083.77,16602,16.88,74042.5,6.37,5.71,5.67,0,*7B
1499490084.95,16603,16.88,74042.0,6.37,5.67,5.63,0,*79
1499490086.16,16604,16.88,74042.3,6.39,5.71,5.67,0,*73
1499490087.36,16605,16.88,74044.5,6.39,5.49,5.45,0,*79
1499490088.54,16606,16.88,74050.0,6.37,5.23,5.19,0,*71
1499490089.72,16607,16.88,74050.8,6.37,5.07,5.07,0,*79
1499490090.94,16608,16.94,74056.0,6.37,5.51,5.51,0,*76
1499490092.16,16609,16.94,74044.8,6.37,5.51,5.51,0,*77
1499490093.36,16610,16.94,74044.8,6.37,5.55,5.63,0,*7A
1499490094.53,16611,16.88,74046.3,6.37,5.33,5.33,0,*7E
1499490095.71,16612,16.88,74046.0,6.37,4.85,4.81,0,*79
1499490096.91,16613,16.94,74052.8,6.35,5.23,5.29,0,*74
1499490098.17,16614,16.94,74044.3,6.35,5.01,4.97,0,*77
1499490099.43,16615,16.94,74048.5,6.35,5.51,5.51,0,*78
1499490100.63,16616,16.94,74054.3,6.35,6.11,6.11,0,*7B
1499490101.85,16617,16.88,74056.8,6.35,5.99,6.03,0,*7A
1499490103.04,16618,16.94,74058.0,6.35,5.45,5.41,0,*71
1499490104.3,16619,16.94,74056.3,6.35,5.93,5.89,0,*7F
1499490105.52,16620,16.94,74052.3,6.35,6.25,6.33,0,*79
1499490106.72,16621,16.94,74044.8,6.41,6.69,6.75,0,*71
1499490107.97,16622,16.94,74054.0,6.39,6.53,6.61,0,*71
1499490109.22,16623,16.88,74048.5,6.39,6.73,6.73,0,*71
1499490110.44,16624,16.94,74052.5,6.41,6.57,6.53,0,*7D
1499490111.67,16625,16.94,74054.3,6.41,5.89,5.89,0,*78
1499490112.85,16626,16.88,74048.3,6.41,5.99,6.11,0,*78
1499490114.06,16627,16.88,74050.5,6.43,6.21,6.11,0,*7B
1499490115.33,16628,16.94,74056.8,6.43,6.47,6.47,0,*77
1499490116.55,16629,16.94,74054.5,6.41,6.39,6.39,0,*74
1499490117.82,16630,16.94,74058.8,6.43,6.43,6.47,0,*7A
1499490119.07,16631,16.94,74054.3,6.43,6.87,6.87,0,*7F
1499490120.26,16632,16.94,74064.5,6.45,6.33,6.33,0,*7A
1499490121.47,16633,16.94,74062.5,6.45,5.93,5.99,0,*71
1499490122.71,16634,16.88,74058.5,6.47,5.73,5.73,0,*7E
1499490123.97,16635,16.94,74056.5,6.47,5.89,5.81,0,*77
1499490125.18,16636,16.88,74058.3,6.47,6.03,5.99,0,*7C
1499490126.36,16637,16.94,74056.0,6.45,5.63,5.67,0,*7B
1499490127.59,16638,16.94,74056.0,6.45,5.73,5.81,0,*7D
1499490128.81,16639,16.88,74052.0,6.45,6.13,6.13,0,*71
1499490130.02,16640,16.94,74054.8,6.45,6.33,6.35,0,*79
1499490131.23,16641,16.88,74052.8,6.47,6.25,6.25,0,*7C
1499490132.45,16642,16.94,74058.8,6.45,5.55,5.51,0,*79
1499490133.67,16643,16.94,74058.8,6.45,5.77,5.73,0,*78
1499490134.85,16644,16.94,74054.8,6.45,6.21,6.25,0,*7F
1499490136.07,16645,16.94,74056.3,6.45,6.51,6.57,0,*7C
1499490137.33,16646,16.94,74056.3,6.47,6.43,6.43,0,*7B
1499490138.54,16647,16.94,74056.3,6.47,6.33,6.25,0,*7D
1499490139.8,16648,16.94,74052.5,6.47,6.35,6.35,0,*75
1499490141.06,16649,16.94,74054.3,6.47,6.51,6.51,0,*74
1499490142.31,16650,16.88,74054.5,6.47,6.61,6.57,0,*79
1499490143.54,16651,16.94,74052.5,6.51,6.69,6.75,0,*77
1499490144.76,16652,16.94,74058.8,6.47,6.73,6.83,0,*71
1499490145.96,16653,16.88,74060.3,6.51,6.79,6.79,0,*78
1499490147.18,16654,16.94,74062.8,6.49,6.61,6.61,0,*76
1499490148.39,16655,16.94,74062.0,6.51,6.11,6.21,0,*7D
1499490149.6,16656,16.94,74066.8,6.51,5.99,5.95,0,*71
1499490150.85,16657,16.94,74066.3,6.51,6.17,6.17,0,*7C
1499490152.06,16658,16.94,74060.5,6.51,6.11,6.11,0,*73
1499490153.26,16659,16.94,74058.8,6.53,6.11,6.07,0,*77
1499490154.49,16660,16.94,74054.0,6.51,5.95,5.89,0,*75
1499490155.7,16661,16.94,74050.3,6.51,5.95,5.95,0,*79
1499490156.89,16662,16.94,74054.0,6.49,6.03,5.95,0,*7F
1499490158.1,16663,16.94,74054.3,6.51,6.07,5.99,0,*7F
1499490159.27,16664,16.94,74050.5,6.49,6.07,6.07,0,*75
1499490160.46,16665,16.94,74050.8,6.49,6.03,5.95,0,*78
1499490161.65,16666,16.94,74052.3,6.49,6.03,6.03,0,*77
1499490162.82,16667,16.88,74054.3,6.49,6.07,6.07,0,*76
1499490164.04,16668,16.94,74056.0,6.51,5.99,5.99,0,*70
1499490165.22,16669,16.88,74056.5,6.49,5.15,5.11,0,*7C
1499490166.44,16670,16.94,74056.5,6.49,5.81,5.85,0,*74
1499490167.63,16671,16.88,74056.5,6.49,6.03,6.07,0,*75
1499490168.86,16672,16.94,74056.8,6.49,6.39,6.47,0,*7B
1499490170.1,16673,16.94,74058.5,6.49,6.51,6.47,0,*74
1499490171.31,16674,16.94,74056.3,6.49,6.35,6.29,0,*79
1499490172.55,16675,16.94,74052.0,6.49,6.51,6.51,0,*75
1499490173.76,16676,16.88,74052.8,6.51,6.29,6.21,0,*77
1499490175.01,16677,16.94,74056.3,6.51,6.57,6.57,0,*7E
1499490176.26,16678,16.94,74058.0,6.51,6.69,6.73,0,*7A
1499490177.51,16679,16.88,74060.3,6.53,6.65,6.65,0,*72
1499490178.72,16680,16.88,74056.8,6.53,6.29,6.29,0,*74
1499490179.98,16681,16.94,74060.5,6.57,6.39,6.51,0,*7F
1499490181.18,16682,16.94,74060.8,6.53,6.29,6.29,0,*76
1499490182.39,16683,16.94,74062.3,6.53,6.29,6.29,0,*77
1499490183.63,16684,16.94,74060.5,6.57,6.35,6.29,0,*79
1499490184.84,16685,16.88,74058.0,6.59,6.13,6.07,0,*7E
1499490186.09,16686,16.94,74058.8,6.53,5.89,5.89,0,*72
1499490187.35,16687,16.94,74062.8,6.57,5.93,5.93,0,*77
1499490188.55,16688,16.94,74058.3,6.53,5.95,5.95,0,*7C
1499490189.76,16689,16.94,74062.0,6.53,5.99,6.11,0,*7E
1499490191.01,16690,16.88,74054.8,6.53,6.51,6.53,0,*77
1499490192.26,16691,16.88,74048.8,6.53,6.65,6.69,0,*78
1499490193.51,16692,16.88,74052.0,6.57,6.69,6.73,0,*78
1499490194.76,16693,16.94,74054.5,6.53,6.65,6.65,0,*76
1499490196.01,16694,16.94,74052.3,6.53,6.57,6.69,0,*7C
1499490197.26,16695,16.88,74050.0,6.57,6.69,6.69,0,*74
1499490198.5,16696,16.94,74054.5,6.57,6.53,6.57,0,*73
1499490199.75,16697,16.94,74054.0,6.57,6.57,6.61,0,*73
1499490201.01,16698,16.88,74052.0,6.57,6.47,6.53,0,*7C
1499490202.24,16699,16.94,74054.0,6.59,6.51,6.61,0,*75
1499490203.47,16700,16.94,74056.3,6.59,6.57,6.57,0,*77
1499490204.68,16701,16.94,74056.0,6.59,6.29,6.35,0,*7B
1499490205.91,16702,16.94,74056.0,6.59,6.57,6.57,0,*75
1499490207.15,16703,16.94,74056.5,6.59,6.51,6.47,0,*73
1499490208.39,16704,16.94,74064.0,6.59,6.17,6.17,0,*73
1499490209.64,16705,16.94,74064.0,6.57,5.51,5.51,0,*7C
1499490210.88,16706,16.94,74060.3,6.59,4.97,4.97,0,*71
1499490212.09,16707,16.94,74060.3,6.57,5.11,5.11,0,*7E
1499490213.29,16708,16.94,74058.3,6.53,5.41,5.49,0,*7D
1499490214.49,16709,16.94,74062.0,6.53,5.59,5.59,0,*74
1499490215.72,16710,16.94,74054.0,6.53,5.51,5.59,0,*74
1499490216.9,16711,16.94,74044.5,6.49,5.07,5.07,0,*76
1499490218.16,16712,16.94,74048.8,6.51,4.93,4.93,0,*7C
1499490219.4,16713,16.94,74054.3,6.49,4.79,4.75,0,*78
1499490220.58,16714,16.94,74058.3,6.49,4.57,4.53,0,*77
1499490221.75,16715,16.94,74060.3,6.45,4.23,4.27,0,*7A
1499490223.01,16716,16.94,74054.5,6.43,3.75,3.75,0,*7B
1499490224.21,16717,16.94,74052.5,6.41,3.97,3.89,0,*77
1499490225.47,16718,16.94,74052.0,6.39,3.75,3.71,0,*7C
1499490226.64,16719,16.94,74050.3,6.37,4.19,4.19,0,*77
1499490227.85,16720,16.94,74054.5,6.35,4.85,4.89,0,*73
1499490229.05,16721,16.94,74052.0,6.35,5.41,5.33,0,*7B
1499490230.32,16722,16.94,74050.8,6.35,5.01,5.01,0,*7D
1499490231.53,16723,16.94,74056.0,6.35,4.89,4.85,0,*70
1499490232.77,16724,16.94,74062.0,6.31,4.93,5.07,0,*73
1499490233.97,16725,16.94,74062.0,6.31,5.41,5.37,0,*7F
1499490235.22,16726,16.94,74062.5,6.35,5.51,5.51,0,*79
1499490236.42,16727,16.94,74060.8,6.31,5.37,5.41,0,*7D
1499490237.69,16728,16.94,74060.5,6.31,4.97,5.01,0,*7D
1499490238.92,16729,16.94,74062.0,6.31,5.15,5.05,0,*73
1499490240.12,16730,16.94,74060.5,6.31,5.15,5.15,0,*7A
1499490241.32,16731,16.94,74058.3,6.31,5.41,5.29,0,*75
1499490242.53,16732,16.94,74060.5,6.31,5.15,5.15,0,*78
1499490243.74,16733,16.94,74058.3,6.31,5.07,5.07,0,*79
1499490244.95,16734,16.94,74058.5,6.31,5.07,5.07,0,*7E
1499490246.18,16735,16.94,74056.5,6.31,4.93,4.85,0,*78
1499490247.42,16736,16.94,74062.3,6.27,4.93,4.89,0,*70
1499490248.63,16737,16.94,74062.5,6.27,4.89,4.89,0,*7A
1499490249.83,16738,16.94,74062.0,6.27,4.89,4.81,0,*7D
1499490251.1,16739,16.94,74056.8,6.27,4.79,4.75,0,*78
1499490252.33,16740,16.94,74058.0,6.27,4.93,4.81,0,*79
1499490253.55,16741,16.94,74060.5,6.27,5.15,5.11,0,*7F
1499490254.76,16742,16.94,74060.8,6.25,4.85,4.79,0,*79
1499490255.97,16743,16.94,74064.3,6.23,4.85,4.85,0,*7D
1499490257.2,16744,16.94,74060.8,6.23,4.97,4.89,0,*75
1499490258.44,16745,16.94,74060.3,6.25,4.97,4.97,0,*7D
1499490259.71,16746,16.94,74056.0,6.23,5.01,4.97,0,*76
1499490260.95,16747,16.94,74054.3,6.23,4.85,4.75,0,*76
1499490262.21,16748,16.94,74048.5,6.23,4.71,4.63,0,*75
1499490263.48,16749,16.94,74050.0,6.23,4.79,4.71,0,*7F
1499490264.72,16750,16.94,74052.0,6.21,4.71,4.71,0,*7D
1499490265.93,16751,16.94,74050.5,6.21,4.85,4.75,0,*73
1499490267.11,16752,16.94,74056.3,6.19,4.85,4.81,0,*70
1499490268.35,16753,16.94,74058.3,6.19,4.97,5.05,0,*7F
1499490269.52,16754,16.94,74056.5,6.19,5.29,5.29,0,*72
1499490270.7,16755,16.94,74052.8,6.19,5.49,5.41,0,*7B
1499490271.89,16756,16.94,74046.8,6.21,5.63,5.67,0,*7F
1499490273.12,16757,16.94,74042.0,6.19,5.51,5.51,0,*71
1499490274.34,16758,16.94,74050.0,6.19,5.77,5.77,0,*7E
1499490275.56,16759,16.94,74058.0,6.19,5.77,5.77,0,*7F
1499490276.78,16760,16.94,74050.0,6.21,5.77,5.73,0,*7A
1499490277.99,16761,16.94,74044.3,6.21,5.89,5.95,0,*72
1499490279.22,16762,16.94,74046.5,6.21,5.89,5.89,0,*7C
1499490280.42,16763,16.94,74046.8,6.21,5.51,5.49,0,*74
1499490281.6,16764,16.94,74052.3,6.21,5.63,5.63,0,*7A
1499490282.81,16765,16.94,74052.0,6.21,5.73,5.67,0,*7E
1499490284.03,16766,16.94,74040.5,6.21,5.73,5.73,0,*78
1499490285.24,16767,16.94,74048.8,6.21,5.89,5.95,0,*74
1499490286.48,16768,16.94,74048.5,6.25,5.81,5.81,0,*72
1499490287.7,16769,16.94,74044.3,6.25,5.89,5.99,0,*72
1499490288.92,16770,16.94,74048.0,6.25,5.77,5.89,0,*7A
1499490290.13,16771,16.94,74044.0,6.25,5.77,5.71,0,*7C
1499490291.31,16772,16.94,74044.5,6.25,5.71,5.67,0,*7E
1499490292.52,16773,16.94,74048.3,6.25,5.71,5.77,0,*7E
1499490293.73,16774,16.94,74044.8,6.23,5.59,5.59,0,*79
1499490294.98,16775,16.94,74048.5,6.23,5.77,5.81,0,*71
1499490296.22,16776,16.94,74048.8,6.25,5.81,5.93,0,*7E
1499490297.4,16777,16.94,74056.3,6.25,5.67,5.71,0,*7B
1499490298.62,16778,16.94,74054.3,6.27,5.95,6.03,0,*7D
1499490299.88,16779,16.94,74058.5,6.27,5.93,5.85,0,*77
1499490301.14,16780,16.94,74056.0,6.27,5.85,5.81,0,*72
1499490302.37,16781,16.94,74056.8,6.25,5.77,5.77,0,*75
1499490303.63,16782,16.94,74056.5,6.23,5.89,5.93,0,*7B
1499490304.88,16783,16.94,74054.8,6.27,5.85,5.81,0,*71
1499490306.09,16784,16.94,74056.8,6.25,5.71,5.77,0,*76
1499490307.31,16785,16.94,74058.3,6.25,5.77,5.77,0,*71
1499490308.58,16786,16.94,74054.0,6.27,5.93,5.85,0,*77
1499490309.76,16787,16.94,74058.0,6.25,5.59,5.59,0,*73
1499490311.02,16788,16.94,74058.8,6.23,5.55,5.51,0,*7E
1499490312.25,16789,16.94,74056.8,6.25,5.55,5.55,0,*7D
1499490313.49,16790,16.94,74060.5,6.25,5.89,5.89,0,*75
1499490314.72,16791,16.94,74064.3,6.25,5.81,5.81,0,*74
1499490315.93,16792,16.94,74062.3,6.25,5.59,5.55,0,*7B
1499490317.13,16793,16.94,74066.8,6.23,5.45,5.45,0,*70
1499490318.33,16794,16.94,74064.5,6.27,5.37,5.37,0,*73
1499490319.55,16795,16.94,74070.8,6.23,5.33,5.33,0,*76
1499490320.76,16796,16.94,74066.0,6.23,5.29,5.23,0,*7F
1499490321.97,16797,16.94,74062.8,6.23,5.23,5.23,0,*74
1499490323.16,16798,16.94,74060.5,6.25,5.29,5.23,0,*77
1499490324.37,16799,16.94,74064.5,6.23,5.41,5.41,0,*7A
1499490325.58,16800,16.94,74062.0,6.23,5.07,5.07,0,*75
1499490326.82,16801,16.94,74060.8,6.23,5.07,5.01,0,*72
1499490328.06,16802,16.94,74068.3,6.21,4.97,4.93,0,*71
1499490329.26,16803,16.94,74058.0,6.21,4.93,4.85,0,*73
1499490330.48,16804,16.94,74054.3,6.19,4.97,4.85,0,*7B
1499490331.72,16805,16.94,74054.3,6.19,4.93,4.93,0,*79
1499490332.98,16806,16.94,74050.3,6.17,4.93,4.93,0,*74
1499490334.21,16807,16.94,74056.3,6.17,4.81,4.79,0,*72
1499490335.45,16808,16.94,74060.3,6.17,4.81,4.79,0,*7D
1499490336.71,16809,16.94,74060.5,6.17,4.67,4.63,0,*7F
1499490337.89,16810,16.94,74062.5,6.15,4.41,4.37,0,*70
1499490339.13,16811,16.94,74064.8,6.13,4.37,4.31,0,*70
1499490340.4,16812,16.94,74064.0,6.09,4.93,4.93,0,*7E
1499490341.66,16813,16.94,74064.5,6.09,4.97,4.93,0,*7B
1499490342.94,16814,16.94,74060.3,6.09,4.71,4.71,0,*78
1499490344.21,16815,16.94,74054.0,6.09,4.71,4.75,0,*7D
1499490345.42,16816,16.94,74058.5,6.09,4.81,4.85,0,*7E
1499490346.63,16817,16.94,74058.8,6.09,5.07,5.15,0,*78
1499490347.84,16818,16.94,74056.3,6.09,5.07,5.07,0,*74
1499490349.03,16819,16.94,74054.5,6.07,5.15,5.15,0,*7B
1499490350.22,16820,16.94,74060.0,6.07,5.07,5.15,0,*72
1499490351.4,16821,16.94,74064.8,6.07,5.37,5.29,0,*7F
1499490352.63,16822,16.94,74060.0,6.07,5.51,5.55,0,*77
1499490353.82,16823,16.94,74060.0,6.07,5.67,5.67,0,*72
1499490355.04,16824,16.94,74066.8,6.09,5.67,5.67,0,*7B
1499490356.25,16825,16.94,74070.5,6.09,5.37,5.29,0,*75
1499490357.5,16826,16.94,74066.0,6.09,5.27,5.27,0,*79
1499490358.74,16827,16.94,74066.0,6.09,5.05,5.07,0,*7A
1499490359.96,16828,16.94,74062.3,6.09,5.07,5.07,0,*77
1499490361.21,16829,16.94,74064.3,6.09,5.27,5.27,0,*76
1499490362.42,16830,16.94,74062.8,6.09,5.29,5.37,0,*71
1499490363.67,16831,16.94,74062.3,6.09,5.51,5.51,0,*7F
1499490364.88,16832,16.94,74064.5,6.09,5.41,5.41,0,*7C
1499490366.09,16833,16.94,74062.0,6.09,5.37,5.41,0,*7C
1499490367.29,16834,16.94,74064.8,6.09,5.45,5.45,0,*7A
1499490368.49,16835,16.94,74060.0,6.09,5.29,5.29,0,*7B
1499490369.72,16836,16.94,74058.3,6.09,5.07,5.05,0,*7A
1499490370.96,16837,16.94,74056.0,6.09,4.93,4.85,0,*7E
1499490372.2,16838,16.94,74058.3,6.09,4.93,4.85,0,*71
1499490373.44,16839,16.94,74058.0,6.07,4.63,4.71,0,*7A
1499490374.65,16840,16.94,74060.3,6.05,4.19,4.11,0,*7D
1499490375.88,16841,16.94,74058.8,6.05,3.75,3.63,0,*73
1499490377.11,16842,16.94,74056.3,6.05,3.71,3.63,0,*74
1499490378.33,16843,16.94,74056.3,6.01,3.85,3.81,0,*76
1499490379.53,16844,16.94,74056.8,6.01,4.37,4.27,0,*74
1499490380.77,16845,16.94,74058.0,5.99,4.59,4.59,0,*76
1499490381.95,16846,16.94,74054.3,5.99,4.49,4.49,0,*75
1499490383.19,16847,16.94,74052.3,5.99,4.75,4.75,0,*74
1499490384.43,16848,16.94,74060.8,5.99,4.71,4.63,0,*78
1499490385.67,16849,16.94,74056.8,5.99,4.59,4.59,0,*7A
1499490386.85,16850,16.94,74060.8,5.99,4.33,4.37,0,*76
1499490388.1,16851,16.94,74062.0,5.99,4.75,4.71,0,*77
1499490389.3,16852,16.94,74056.8,5.99,4.75,4.81,0,*7B
1499490390.51,16853,16.94,74060.0,5.97,4.49,4.57,0,*70
1499490391.7,16854,16.94,74062.8,5.99,4.37,4.33,0,*72
1499490392.97,16855,16.94,74056.8,5.97,4.31,4.31,0,*79
1499490394.15,16856,16.94,74058.5,5.95,4.57,4.49,0,*77
1499490395.33,16857,16.94,74056.0,5.95,4.33,4.45,0,*78
1499490396.6,16858,16.94,74052.8,5.93,3.75,3.75,0,*70
1499490397.81,16859,16.94,74052.5,5.93,4.07,4.15,0,*72
1499490399.0,16860,16.94,74048.5,5.91,3.81,3.81,0,*79
1499490400.25,16861,16.94,74054.8,5.89,4.01,4.01,0,*71
1499490401.49,16862,16.94,74044.5,5.91,4.75,4.79,0,*77
1499490402.73,16863,16.94,74050.8,5.89,5.05,5.07,0,*71
1499490403.91,16864,16.94,74050.0,5.91,5.49,5.49,0,*7D
1499490405.15,16865,16.94,74046.3,5.91,4.97,5.01,0,*72
1499490406.37,16866,16.94,74050.5,5.93,5.11,5.07,0,*7A
1499490407.59,16867,16.94,74046.8,5.93,5.19,5.19,0,*7C
1499490408.8,16868,16.94,74046.5,5.93,5.33,5.37,0,*77
1499490410.01,16869,16.94,74054.0,5.93,5.37,5.37,0,*72
1499490411.25,16870,16.94,74054.0,5.93,4.89,4.97,0,*75
1499490412.49,16871,16.94,74050.8,5.93,4.89,4.97,0,*74
1499490413.7,16872,16.94,74032.5,5.93,5.07,5.07,0,*78
1499490414.92,16873,16.94,74028.8,5.93,5.33,5.33,0,*79
1499490416.12,16874,16.94,74046.8,5.93,5.49,5.49,0,*7E
1499490417.3,16875,16.94,74030.3,5.95,5.49,5.49,0,*79
1499490418.49,16876,16.94,74040.0,5.95,5.59,5.59,0,*7A
1499490419.68,16877,16.94,74042.3,5.95,5.59,5.59,0,*7B
1499490420.86,16878,16.94,74038.0,5.95,5.41,5.41,0,*74
1499490422.07,16879,16.94,74042.5,5.97,5.63,5.63,0,*77
1499490423.3,16880,16.94,74050.8,5.97,5.51,5.49,0,*78
1499490424.51,16881,16.94,74048.0,5.97,5.63,5.63,0,*70
1499490425.76,16882,16.94,74050.0,5.97,5.73,5.73,0,*73
1499490426.99,16883,16.94,74044.5,5.99,5.85,5.85,0,*7C
1499490428.21,16884,16.94,74042.0,5.99,5.77,5.77,0,*7B
1499490429.44,16885,16.94,74044.3,5.99,5.77,5.77,0,*7A
1499490430.66,16886,16.94,74042.3,5.99,5.73,5.77,0,*7D
1499490431.89,16887,16.94,74046.5,5.99,5.77,5.77,0,*78
1499490433.14,16888,16.94,74058.3,6.01,5.81,5.89,0,*7D
1499490434.38,16889,16.94,74062.3,6.03,5.93,5.93,0,*76
1499490435.63,16890,16.94,74050.3,6.01,5.77,5.77,0,*7C
1499490436.84,16891,16.94,74036.8,6.01,5.59,5.59,0,*7D
1499490438.03,16892,16.94,74036.0,6.03,5.59,5.67,0,*71
1499490439.23,16893,16.94,74036.3,6.03,5.55,5.67,0,*7C
1499490440.44,16894,16.94,74038.3,6.03,5.71,5.77,0,*7C
1499490441.64,16895,16.94,74050.8,6.03,5.71,5.77,0,*7D
1499490442.87,16896,16.94,74054.8,6.03,5.81,5.81,0,*78
1499490444.08,16897,16.94,74054.0,6.01,5.71,5.71,0,*7B
1499490445.29,16898,16.94,74056.0,6.05,5.71,5.71,0,*70
1499490446.5,16899,16.94,74052.0,6.05,5.63,5.71,0,*72
1499490447.75,16900,16.94,74054.3,6.05,5.27,5.27,0,*70
1499490449.01,16901,16.94,74056.3,6.05,4.71,4.67,0,*76
1499490450.19,16902,16.94,74058.3,6.03,4.57,4.49,0,*7B
1499490451.4,16903,16.94,74054.3,5.99,4.01,3.93,0,*79
1499490452.63,16904,16.94,74054.8,5.99,4.01,4.01,0,*72
1499490453.82,16905,16.94,74050.8,5.99,4.27,4.23,0,*77
1499490455.02,16906,16.94,74052.5,5.97,4.11,4.11,0,*7E
1499490456.23,16907,16.94,74050.3,5.97,4.19,4.07,0,*70
1499490457.44,16908,16.94,74050.5,5.97,4.45,4.41,0,*74
1499490458.69,16909,16.94,74046.3,5.95,4.71,4.71,0,*73
1499490459.88,16910,16.94,74044.8,5.95,5.11,5.11,0,*7B
1499490461.06,16911,16.94,74046.3,5.95,5.37,5.41,0,*7B
1499490462.24,16912,16.94,74054.8,5.95,5.37,5.37,0,*79
1499490463.42,16913,16.94,74054.0,5.95,5.41,5.41,0,*78
1499490464.62,16914,16.94,74056.5,5.95,5.23,5.23,0,*7F
1499490465.82,16915,16.94,74056.0,5.97,4.81,4.89,0,*74
1499490467.01,16916,16.94,74052.5,5.95,5.15,5.23,0,*78
1499490468.19,16917,16.94,74056.0,5.95,5.37,5.37,0,*7C
1499490469.4,16918,16.94,74054.5,5.95,5.27,5.37,0,*72
1499490470.58,16919,16.94,74054.8,5.95,5.41,5.41,0,*72
1499490471.83,16920,16.94,74054.0,5.97,5.51,5.51,0,*7A
1499490473.04,16921,16.94,74052.3,5.97,5.71,5.71,0,*7B
1499490474.29,16922,16.94,74052.3,5.97,5.73,5.73,0,*78
1499490475.55,16923,16.94,74056.0,5.97,5.85,5.85,0,*79
1499490476.77,16924,16.94,74054.8,5.99,5.73,5.73,0,*70
1499490478.01,16925,16.94,74054.3,5.99,5.73,5.85,0,*78
1499490479.23,16926,16.94,74056.5,6.01,5.55,5.49,0,*7D
1499490480.44,16927,16.94,74052.8,6.01,5.49,5.49,0,*71
1499490481.69,16928,16.94,74060.8,6.01,5.89,5.77,0,*7F
1499490482.95,16929,16.94,74060.8,6.01,5.89,5.93,0,*74
1499490484.19,16930,16.94,74058.8,5.99,5.85,5.89,0,*79
1499490485.44,16931,16.94,74062.3,6.01,5.89,5.89,0,*76
1499490486.7,16932,16.94,74062.3,6.01,5.81,5.81,0,*75
1499490487.91,16933,16.94,74062.0,6.05,5.71,5.59,0,*7A
1499490489.09,16934,16.94,74060.3,6.03,5.49,5.49,0,*71
1499490490.3,16935,16.94,74062.3,6.01,5.59,5.67,0,*7F
1499490491.53,16936,16.94,74060.8,6.03,5.77,5.81,0,*7A
1499490492.72,16937,16.94,74062.3,6.03,5.59,5.67,0,*7F
1499490493.91,16938,16.94,74066.5,6.03,5.67,5.71,0,*7A
1499490495.08,16939,16.94,74064.8,6.03,5.49,5.49,0,*7C
1499490496.27,16940,16.94,74066.0,6.03,5.49,5.49,0,*72
1499490497.46,16941,16.94,74064.3,6.03,5.67,5.67,0,*73
1499490498.64,16942,16.94,74062.8,6.03,5.71,5.67,0,*77
1499490499.85,16943,16.94,74066.3,6.03,5.71,5.77,0,*77
1499490501.04,16944,16.94,74066.3,6.03,5.67,5.67,0,*76
1499490502.23,16945,16.94,74062.5,6.03,5.67,5.71,0,*70
1499490503.46,16946,16.94,74064.5,6.03,5.89,5.93,0,*7F
1499490504.67,16947,16.94,74068.8,6.03,5.67,5.55,0,*74
1499490505.89,16948,16.94,74066.8,6.01,5.07,5.07,0,*78
1499490507.07,16949,16.94,74064.8,6.03,5.29,5.23,0,*71
1499490508.26,16950,16.94,74066.8,6.03,5.33,5.33,0,*73
1499490509.45,16951,16.94,74064.0,6.03,5.67,5.67,0,*72
1499490510.69,16952,16.94,74066.3,6.03,5.93,5.93,0,*71
1499490511.9,16953,16.94,74064.8,6.05,5.63,5.71,0,*75
1499490513.12,16954,16.94,74064.5,6.05,5.71,5.73,0,*73
1499490514.36,16955,16.94,74066.8,6.03,5.81,5.81,0,*76
1499490515.56,16956,16.94,74064.3,6.05,5.49,5.49,0,*73
1499490516.77,16957,16.94,74066.0,6.03,5.01,4.89,0,*75
1499490518.01,16958,16.94,74066.3,6.03,4.79,4.79,0,*7B
1499490519.22,16959,16.94,74064.0,6.03,4.67,4.57,0,*79
1499490520.48,16960,16.94,74058.8,6.01,4.67,4.67,0,*72
1499490521.72,16961,16.94,74056.5,6.01,4.85,4.79,0,*70
1499490522.96,16962,16.94,74058.5,5.99,4.71,4.63,0,*71
1499490524.15,16963,16.94,74058.5,5.99,4.37,4.37,0,*73
1499490525.33,16964,16.94,74052.3,5.99,4.33,4.27,0,*71
1499490526.54,16965,16.94,74050.0,5.97,4.45,4.41,0,*7F
1499490527.75,16966,16.94,74044.8,5.97,4.57,4.49,0,*77
1499490528.96,16967,16.94,74038.8,5.95,4.81,4.79,0,*7C
1499490530.14,16968,16.94,74040.5,5.95,5.23,5.15,0,*71
1499490531.33,16969,16.94,74040.8,5.95,5.37,5.33,0,*71